When you browse on this site, cookies collect data to enhance your experience and personalize the content and advertising you see.
Visit our Privacy Policy to learn more. By continuing to use the site, you agree to this use of cookies and data.
  • In Hungary
  • List of Countries
  • For 7 days
  • Water Temperature
  • Satellite Maps
  • Weather Map
  • News
  • Weather Widgets
  • user-avatar
    Login

    Hourly Weather Sad

    Today, 25 May, Saturday

    Time Temperature Precipitation Wind Pressure Humidity
    00:00 +14°C° 0 mm 1 mps 742 mmHg 91%
    01:00 +13°C° 0 mm 1 mps 742 mmHg 92%
    02:00 +13°C° 0 mm 1 mps 742 mmHg 93%
    03:00 +13°C° 0 mm 1 mps 742 mmHg 93%
    04:00 +12°C° 0 mm 1 mps 742 mmHg 92%
    05:00 +11°C° 0 mm 0 mps 742 mmHg 92%
    06:00 +14°C° 0 mm 1 mps 742 mmHg 88%
    07:00 +16°C° 0 mm 1 mps 742 mmHg 83%
    08:00 +17°C° 0 mm 2 mps 743 mmHg 79%
    09:00 +18°C° 0.3 mm 2 mps 743 mmHg 74%
    10:00 +19°C° 0.3 mm 3 mps 743 mmHg 70%
    11:00 +20°C° 0.3 mm 4 mps 743 mmHg 66%
    12:00 +21°C° 0 mm 4 mps 742 mmHg 62%
    13:00 +21°C° 0 mm 4 mps 742 mmHg 58%
    14:00 +22°C° 0 mm 5 mps 742 mmHg 54%
    15:00 +22°C° 0 mm 5 mps 742 mmHg 56%
    16:00 +21°C° 0 mm 5 mps 742 mmHg 58%
    17:00 +21°C° 0 mm 5 mps 742 mmHg 60%
    18:00 +20°C° 0.1 mm 4 mps 742 mmHg 68%
    19:00 +18°C° 0.1 mm 3 mps 742 mmHg 76%
    20:00 +17°C° 0.1 mm 3 mps 742 mmHg 83%
    21:00 +15°C° 0 mm 2 mps 742 mmHg 87%
    22:00 +14°C° 0 mm 2 mps 742 mmHg 91%
    23:00 +12°C° 0 mm 2 mps 743 mmHg 94%

    Tomorrow, 26 May, Sunday

    Time Temperature Precipitation Wind Pressure Humidity
    00:00 +12°C° 0 mm 2 mps 743 mmHg 93%
    01:00 +11°C° 0 mm 1 mps 743 mmHg 92%
    02:00 +11°C° 0 mm 1 mps 743 mmHg 91%
    03:00 +10°C° 0 mm 1 mps 743 mmHg 92%
    04:00 +10°C° 0 mm 1 mps 743 mmHg 93%
    05:00 +9°C° 0 mm 2 mps 743 mmHg 94%
    06:00 +11°C° 0 mm 3 mps 743 mmHg 87%
    07:00 +12°C° 0 mm 4 mps 743 mmHg 81%
    08:00 +13°C° 0 mm 5 mps 744 mmHg 75%
    09:00 +14°C° 0 mm 5 mps 744 mmHg 71%
    10:00 +15°C° 0 mm 5 mps 744 mmHg 68%
    11:00 +16°C° 0 mm 5 mps 743 mmHg 64%
    12:00 +17°C° 0 mm 5 mps 743 mmHg 62%
    13:00 +19°C° 0 mm 5 mps 743 mmHg 60%
    14:00 +19°C° 0 mm 5 mps 743 mmHg 57%
    15:00 +19°C° 0 mm 5 mps 742 mmHg 58%
    16:00 +19°C° 0 mm 5 mps 742 mmHg 59%
    17:00 +19°C° 0 mm 5 mps 742 mmHg 60%
    18:00 +18°C° 0 mm 4 mps 742 mmHg 66%
    19:00 +17°C° 0 mm 3 mps 742 mmHg 71%
    20:00 +16°C° 0 mm 2 mps 742 mmHg 77%
    21:00 +15°C° 0 mm 2 mps 742 mmHg 80%
    22:00 +14°C° 0 mm 2 mps 742 mmHg 83%
    23:00 +13°C° 0 mm 2 mps 742 mmHg 85%

    Day after tomorrow, 27 May, Monday

    Time Temperature Precipitation Wind Pressure Humidity
    00:00 +12°C° 0 mm 3 mps 742 mmHg 84%
    01:00 +12°C° 0 mm 3 mps 742 mmHg 83%
    02:00 +12°C° 0 mm 4 mps 742 mmHg 82%
    03:00 +12°C° 0 mm 3 mps 742 mmHg 85%
    04:00 +12°C° 0 mm 3 mps 742 mmHg 87%
    05:00 +11°C° 0 mm 3 mps 742 mmHg 90%
    06:00 +13°C° 0 mm 3 mps 742 mmHg 85%
    07:00 +15°C° 0 mm 4 mps 742 mmHg 80%
    08:00 +18°C° 0 mm 4 mps 742 mmHg 75%
    09:00 +19°C° 0 mm 5 mps 742 mmHg 70%
    10:00 +21°C° 0 mm 5 mps 742 mmHg 65%
    11:00 +22°C° 0 mm 6 mps 742 mmHg 60%
    12:00 +23°C° 0.1 mm 6 mps 742 mmHg 58%
    13:00 +24°C° 0.1 mm 6 mps 742 mmHg 56%
    14:00 +24°C° 0.1 mm 6 mps 742 mmHg 54%
    15:00 +24°C° 0.1 mm 6 mps 741 mmHg 57%
    16:00 +24°C° 0.1 mm 6 mps 741 mmHg 61%
    17:00 +23°C° 0.1 mm 5 mps 741 mmHg 64%
    18:00 +22°C° 0.1 mm 5 mps 741 mmHg 70%
    19:00 +21°C° 0.1 mm 4 mps 741 mmHg 77%
    20:00 +20°C° 0.1 mm 4 mps 740 mmHg 83%
    21:00 +19°C° 0 mm 3 mps 741 mmHg 86%
    22:00 +18°C° 0 mm 3 mps 741 mmHg 89%
    23:00 +17°C° 0 mm 3 mps 741 mmHg 91%

    28 May, Tuesday

    Time Temperature Precipitation Wind Pressure Humidity
    00:00 +17°C° 0 mm 3 mps 741 mmHg 92%
    01:00 +16°C° 0 mm 2 mps 741 mmHg 93%
    02:00 +16°C° 0 mm 2 mps 741 mmHg 93%
    03:00 +16°C° 0 mm 2 mps 741 mmHg 94%
    04:00 +16°C° 0 mm 1 mps 741 mmHg 94%
    05:00 +16°C° 0 mm 1 mps 741 mmHg 94%
    06:00 +16°C° 1.6 mm 1 mps 741 mmHg 95%
    07:00 +18°C° 1.6 mm 1 mps 741 mmHg 95%
    08:00 +16°C° 1.6 mm 0 mps 741 mmHg 96%
    09:00 +18°C° 1.8 mm 1 mps 741 mmHg 96%
    10:00 +18°C° 1.8 mm 1 mps 740 mmHg 96%
    11:00 +18°C° 1.8 mm 1 mps 740 mmHg 97%
    12:00 +20°C° 0.2 mm 1 mps 740 mmHg 90%
    13:00 +21°C° 0.2 mm 1 mps 740 mmHg 83%
    14:00 +23°C° 0.2 mm 1 mps 740 mmHg 76%
    15:00 +23°C° 0 mm 1 mps 740 mmHg 77%
    16:00 +23°C° 0 mm 2 mps 739 mmHg 78%
    17:00 +23°C° 0 mm 2 mps 739 mmHg 78%
    18:00 +21°C° 2.1 mm 2 mps 739 mmHg 83%
    19:00 +20°C° 2.1 mm 2 mps 739 mmHg 88%
    20:00 +19°C° 2.1 mm 3 mps 739 mmHg 93%
    21:00 +18°C° 0.7 mm 2 mps 739 mmHg 94%
    22:00 +18°C° 0.7 mm 2 mps 739 mmHg 95%
    23:00 +17°C° 0.7 mm 2 mps 738 mmHg 96%

    29 May, Wednesday

    Time Temperature Precipitation Wind Pressure Humidity
    00:00 +17°C° 1.2 mm 2 mps 738 mmHg 96%
    01:00 +18°C° 1.2 mm 1 mps 738 mmHg 97%
    02:00 +16°C° 1.2 mm 1 mps 738 mmHg 97%
    03:00 +16°C° 0.3 mm 2 mps 739 mmHg 97%
    04:00 +16°C° 0.3 mm 2 mps 739 mmHg 98%
    05:00 +16°C° 0.3 mm 3 mps 739 mmHg 98%
    06:00 +16°C° 0.8 mm 3 mps 740 mmHg 97%
    07:00 +14°C° 0.8 mm 4 mps 740 mmHg 96%
    08:00 +14°C° 0.8 mm 5 mps 741 mmHg 95%
    09:00 +14°C° 0.1 mm 5 mps 741 mmHg 93%
    10:00 +14°C° 0.1 mm 5 mps 742 mmHg 92%
    11:00 +13°C° 0.1 mm 5 mps 743 mmHg 91%
    12:00 +13°C° 0.1 mm 5 mps 743 mmHg 90%
    13:00 +11°C° 0.1 mm 6 mps 744 mmHg 90%
    14:00 +10°C° 0.1 mm 6 mps 745 mmHg 89%
    15:00 +10°C° 0 mm 5 mps 745 mmHg 87%
    16:00 +12°C° 0 mm 4 mps 746 mmHg 85%
    17:00 +13°C° 0 mm 3 mps 746 mmHg 82%
    18:00 +13°C° 0 mm 4 mps 747 mmHg 82%
    19:00 +12°C° 0 mm 4 mps 747 mmHg 81%
    20:00 +12°C° 0 mm 4 mps 748 mmHg 80%
    21:00 +11°C° 0 mm 4 mps 749 mmHg 80%
    22:00 +8°C° 0 mm 4 mps 749 mmHg 81%
    23:00 +7°C° 0 mm 4 mps 750 mmHg 81%

    30 May, Thursday

    Time Temperature Precipitation Wind Pressure Humidity
    00:00 +7°C° 0 mm 3 mps 750 mmHg 83%
    01:00 +5°C° 0 mm 3 mps 751 mmHg 84%
    02:00 +4°C° 0 mm 3 mps 751 mmHg 85%
    03:00 +3°C° 0 mm 3 mps 751 mmHg 85%
    04:00 +4°C° 0 mm 2 mps 752 mmHg 84%
    05:00 +4°C° 0 mm 2 mps 752 mmHg 84%
    06:00 +6°C° 0 mm 2 mps 752 mmHg 77%
    07:00 +8°C° 0 mm 2 mps 752 mmHg 70%
    08:00 +10°C° 0 mm 3 mps 753 mmHg 63%
    09:00 +13°C° 0 mm 2 mps 752 mmHg 57%
    10:00 +14°C° 0 mm 2 mps 752 mmHg 50%
    11:00 +16°C° 0 mm 2 mps 752 mmHg 44%
    12:00 +17°C° 0 mm 2 mps 752 mmHg 42%
    13:00 +18°C° 0 mm 2 mps 752 mmHg 40%
    14:00 +19°C° 0 mm 1 mps 751 mmHg 39%
    15:00 +19°C° 0 mm 1 mps 751 mmHg 39%
    16:00 +19°C° 0 mm 1 mps 751 mmHg 40%
    17:00 +17°C° 0 mm 0 mps 750 mmHg 41%
    18:00 +16°C° 0 mm 0 mps 750 mmHg 47%
    19:00 +15°C° 0 mm 0 mps 750 mmHg 53%
    20:00 +14°C° 0 mm 0 mps 750 mmHg 59%
    21:00 +14°C° 0 mm 1 mps 750 mmHg 59%
    22:00 +14°C° 0 mm 1 mps 750 mmHg 58%
    23:00 +13°C° 0 mm 1 mps 750 mmHg 58%
    Show more